Retour au catalogue

STARLINK-32653

ActifCommunicationsVLEO
NORAD 62199·PAYLOAD·🇺🇸 United States

Lancé Dec 4, 2024 depuis Cape Canaveral Space Force Station

Loading…

Prochains Passages (prochaines 24 heures)

TLE

FraisSource: CelesTrak SupGP

Époque: Sep 15, 2026, 02:50 UTC

1 62199C 24229H   26258.11854167 -.00011104  00000+0 -40209-3 0  2586
2 62199  42.9995 274.0474 0001296 266.4029 357.7598 15.27590093    18

Suivez STARLINK-32653 en temps réel avec AllMySat

Download on the App Store